Pickwick Observed Data For Previous 48 Hours

Caption
Day and Hour Reservoir Elevation (behind dam)* Tailwater Elevation (below dam)* Average Hourly Discharge*
10/11/2019 1 AM CDT 412.04 356.66 21,162
10/11/2019 2 AM CDT 412.04 356.67 21,070
10/11/2019 3 AM CDT 412.02 356.69 21,195
10/11/2019 4 AM CDT 411.98 356.78 21,304
10/11/2019 5 AM CDT 411.93 356.74 21,221
10/11/2019 6 AM CDT 411.93 356.73 21,326
10/11/2019 7 AM CDT 412.00 356.88 21,219
10/11/2019 8 AM CDT 411.93 356.92 21,350
10/11/2019 9 AM CDT 411.89 356.78 21,343
10/11/2019 10 AM CDT 411.89 356.88 21,428
10/11/2019 11 AM CDT 411.84 356.93 21,397
10/11/2019 12 PM CDT 411.80 356.92 21,489
10/11/2019 1 PM CDT 411.85 356.82 21,597
10/11/2019 2 PM CDT 411.91 356.70 21,724
10/11/2019 3 PM CDT 411.92 356.74 21,304
10/11/2019 4 PM CDT 411.85 356.82 21,218
10/11/2019 5 PM CDT 411.87 356.72 21,202
10/11/2019 6 PM CDT 411.81 356.72 21,217
10/11/2019 7 PM CDT 411.72 356.75 21,294
10/11/2019 8 PM CDT 411.80 356.79 21,297
10/11/2019 9 PM CDT 411.79 356.89 21,199
10/11/2019 10 PM CDT 411.74 356.92 21,147
10/11/2019 11 PM CDT 411.72 356.97 21,178
10/12/2019 12 AM CDT 411.77 357.00 21,035
10/12/2019 1 AM CDT 411.78 357.07 21,153
10/12/2019 2 AM CDT 411.75 357.15 21,209
10/12/2019 3 AM CDT 411.69 357.24 21,295
10/12/2019 4 AM CDT 411.68 357.27 21,488
10/12/2019 5 AM CDT 411.68 357.25 21,482
10/12/2019 6 AM CDT 411.71 357.25 21,561
10/12/2019 7 AM CDT 411.72 357.24 21,541
10/12/2019 8 AM CDT 411.69 357.20 21,604
10/12/2019 9 AM CDT 411.63 357.29 21,505
10/12/2019 10 AM CDT 411.64 357.22 21,492
10/12/2019 11 AM CDT 411.65 357.17 21,539
10/12/2019 12 PM CDT 411.65 357.24 21,642
10/12/2019 1 PM CDT 411.67 357.11 21,516
10/12/2019 2 PM CDT 411.71 357.16 21,422
10/12/2019 3 PM CDT 411.71 357.23 21,599
10/12/2019 4 PM CDT 411.69 357.08 21,598
10/12/2019 5 PM CDT 411.71 357.11 21,589
10/12/2019 6 PM CDT 411.70 357.11 21,486
10/12/2019 7 PM CDT 411.72 357.02 21,448
10/12/2019 8 PM CDT 411.72 356.99 21,667
10/12/2019 9 PM CDT 411.72 356.97 21,708
10/12/2019 10 PM CDT 411.68 357.00 21,626
10/12/2019 11 PM CDT 411.64 356.95 21,629
10/13/2019 12 AM CDT 411.64 356.96 21,506
10/13/2019 1 AM CDT 411.64 356.90 21,455
10/13/2019 2 AM CDT 411.60 356.89 21,486
10/13/2019 3 AM CDT 411.58 356.87 21,414
10/13/2019 4 AM CDT 411.57 356.87 21,399
10/13/2019 5 AM CDT 411.56 356.87 21,448
10/13/2019 6 AM CDT 411.51 356.87 21,476
10/13/2019 7 AM CDT 411.50 356.87 21,512
10/13/2019 8 AM CDT 411.49 356.89 21,614
10/13/2019 9 AM CDT 411.48 356.87 21,420
10/13/2019 10 AM CDT 411.45 356.90 21,385
10/13/2019 11 AM CDT 411.44 356.97 21,790
10/13/2019 12 PM CDT 411.51 357.07 21,789
10/13/2019 1 PM CDT 411.47 357.07 21,703
10/13/2019 2 PM CDT 411.49 357.12 21,564
10/13/2019 3 PM CDT 411.50 357.21 21,581
10/13/2019 4 PM CDT 411.49 357.13 21,697
10/13/2019 5 PM CDT 411.49 356.97 21,620
10/13/2019 6 PM CDT 411.46 356.92 21,574

Elevations are in feet above sea level. Discharges are in cubic feet per second and are reported at the end of the hour.